Location: Unspecified
(41.5000°N, 0.0000°E)
Time: 09:56:00
(UTC+00:00)

Vanguard 3 - Pass Details

Date: 21 June 2019
Orbit: 507 x 3264 km, 33.4° (Epoch: 18 July)

Event Time Altitude Azimuth Distance (km) Brightness Sun altitude
Rises 11:01:17 0° 229° (SW) 6,477 11.8 68.0°
Reaches altitude 10° 11:06:38 10° 222° (SW) 5,044 11.4 68.6°
Maximum altitude 11:18:02 35° 165° (SSE) 2,453 10.6 69.8°
Drops below altitude 10° 11:25:04 10° 102° (ESE) 3,084 10.4 70.4°
Sets 11:27:31 0° 93° (E) 3,753 10.7 70.6°
